Theta_e
346 340 339 337 334 326 319 319 318 320 322 326 328 332 333 336 334 333 331 330 329 324 325 327 326 326 326 331 335 337 338 343 344 341 340 335 330 335 345 348 348 349 349
344 343 339 336 328 319 319 318 320 321 321 327 332 333 332 332 331 331 329 325 325 328 329 327 325 326 326 327 334 336 337 337 342 341 343 338 335 334 336 345 344 348 350
344 340 334 329 321 320 319 320 321 325 330 332 334 334 333 331 331 330 325 327 326 324 323 324 324 325 325 326 327 334 337 336 338 336 340 340 338 339 332 337 337 339 345
342 337 330 322 323 320 320 321 325 332 333 333 333 333 330 328 328 326 327 324 322 322 323 323 322 323 324 326 329 331 334 337 336 338 337 339 339 336 343 344 345 339 337
341 336 329 327 323 321 321 320 329 331 333 333 332 329 326 329 327 325 322 321 321 322 323 323 322 323 326 328 330 332 333 334 336 336 338 341 344 344 346 343 346 346 345
339 334 334 329 323 321 320 322 330 334 332 328 326 326 326 327 324 321 319 319 322 324 322 323 324 326 331 332 331 332 332 333 339 337 337 340 341 341 342 346 346 344 345
337 335 332 326 323 323 324 331 334 332 330 323 325 323 326 324 321 321 320 323 324 322 322 328 331 332 333 332 332 332 332 333 334 337 337 338 339 338 339 342 344 344 342
335 335 332 326 327 328 333 333 331 329 324 326 325 326 324 322 321 319 321 322 324 325 331 334 334 334 334 333 333 333 334 334 334 336 337 340 339 338 343 342 341 340 340
336 334 333 328 327 332 332 328 323 321 322 326 327 325 325 323 319 319 321 323 325 325 333 333 335 334 334 335 334 335 337 336 336 336 336 336 337 337 335 339 339 340 340
335 335 333 329 326 332 327 322 321 320 322 325 325 326 325 324 321 319 320 323 324 323 329 334 336 337 335 335 335 335 336 337 338 338 335 335 336 337 338 338 339 340 341
336 335 331 326 327 329 327 326 321 322 326 325 326 323 322 322 317 319 319 322 325 324 323 328 336 337 337 336 336 336 337 337 337 338 341 341 342 342 340 340 339 337 336
336 334 331 331 328 330 330 324 324 326 327 326 325 322 322 318 315 319 321 321 323 323 324 324 326 335 337 337 335 336 338 338 338 339 339 339 340 340 340 341 341 342 341
336 335 332 334 332 327 323 323 326 329 327 325 324 321 321 320 316 316 318 319 323 325 323 324 324 328 332 333 335 336 337 337 336 337 337 339 339 340 340 340 340 337 338
337 335 333 333 332 325 326 330 329 328 327 321 320 321 321 321 320 317 316 316 318 324 326 324 321 324 325 325 327 329 330 331 332 332 334 334 335 336 336 336 335 335 335
336 326 323 330 332 327 326 328 327 325 323 322 320 321 319 317 316 317 317 314 314 323 325 326 325 323 321 322 323 322 324 324 325 325 326 327 328 328 328 328 331 332 332
331 323 324 327 331 328 327 328 325 325 324 323 320 318 317 316 314 313 316 313 314 317 323 324 324 325 326 325 323 320 320 320 319 319 320 322 321 321 320 324 324 323 323
323 319 325 332 328 325 327 326 324 324 325 324 320 320 320 317 315 313 312 312 312 313 315 322 323 323 323 324 324 324 325 324 325 326 326 325 323 318 318 318 315 314 314
322 322 322 324 326 327 325 327 326 325 325 323 322 321 319 315 314 313 308 308 308 310 311 311 317 320 321 320 321 320 320 320 321 323 324 325 325 324 321 321 322 321 320
326 328 328 326 325 325 326 326 326 325 322 325 324 321 319 316 314 312 311 309 308 310 311 311 309 310 317 316 315 316 317 316 316 317 317 319 319 320 321 322 323 324 323
329 329 328 327 326 325 325 325 325 325 324 322 319 317 315 316 313 311 311 310 310 310 311 311 311 311 310 311 312 313 312 313 313 313 313 314 314 315 315 316 317 319 320
321 327 325 322 325 324 324 323 320 320 322 321 319 316 313 313 311 310 310 310 309 309 310 310 310 310 311 310 307 304 304 305 304 309 311 310 310 310 310 311 311 312 312
326 325 324 320 322 321 322 323 324 323 322 320 319 313 311 310 310 309 309 309 309 308 308 308 307 307 309 309 309 303 300 301 301 301 302 306 308 307 309 309 309 309 310
325 324 321 322 322 320 320 320 320 320 318 317 314 312 310 310 309 309 308 308 307 307 306 306 306 306 308 308 304 299 298 298 298 298 299 299 304 305 306 306 306 307 308
324 323 321 321 320 319 319 318 317 316 315 313 311 310 309 309 308 308 307 306 306 306 306 305 305 305 304 303 301 296 296 296 296 296 297 297 299 302 303 303 304 304 303
320 321 320 319 318 318 318 319 315 312 311 310 310 309 309 308 308 307 306 305 304 304 304 304 303 303 303 301 297 294 294 295 295 295 296 297 301 301 302 302 302 302 302
318 317 317 316 316 315 314 312 311 310 309 308 308 308 307 307 306 304 304 303 302 302 302 302 302 301 301 300 296 295 295 295 296 296 296 297 299 301 301 300 299 299 300
Wind_Speed
21 16 16 14 13 16 17 19 22 23 23 23 22 22 25 24 28 29 30 32 38 43 40 41 45 48 49 45 42 39 40 39 42 41 43 46 47 45 28 27 28 31 34
18 21 17 14 14 15 16 19 20 21 21 19 20 24 26 27 27 28 33 41 38 42 45 45 54 55 53 50 46 44 43 40 42 45 40 36 35 35 53 41 28 28 38
21 19 15 13 13 14 17 19 19 19 19 19 22 24 26 29 28 27 36 32 40 48 55 58 63 59 60 56 54 47 42 42 40 43 43 40 38 40 43 48 41 53 48
19 16 13 11 12 14 16 17 15 15 18 22 23 25 26 28 26 30 31 46 49 55 55 57 59 59 50 44 43 47 46 42 39 39 44 43 39 36 39 41 41 42 41
19 15 12 10 11 12 14 13 12 13 17 22 23 24 26 23 25 31 44 50 54 60 57 57 56 50 43 40 41 45 45 44 39 40 41 38 37 33 33 30 26 26 31
20 15 11 10 9 11 11 12 14 13 18 20 21 23 24 24 34 41 47 52 61 62 57 56 47 41 40 39 41 43 46 44 36 38 41 37 35 32 27 21 21 17 22
18 14 13 9 9 9 10 10 11 14 17 19 21 23 23 30 34 45 50 55 62 52 51 42 35 37 37 32 31 32 34 40 42 38 38 39 33 28 26 26 26 29 31
18 14 11 8 7 8 7 8 10 14 15 16 21 21 26 33 36 49 50 54 68 41 34 29 30 32 26 22 27 27 28 34 39 39 38 34 31 26 19 27 28 27 27
16 13 10 9 8 6 6 8 11 13 12 16 19 24 26 37 36 46 53 62 57 43 28 22 25 22 15 18 18 22 22 27 29 33 36 33 28 28 26 30 34 30 31
18 15 12 11 8 9 7 7 10 13 12 14 18 18 22 33 35 42 49 52 57 53 31 20 19 17 14 14 15 18 20 22 21 22 27 31 30 30 29 30 32 34 31
17 16 14 11 10 9 6 10 13 13 11 14 14 16 25 28 32 37 45 52 49 51 40 25 17 15 11 10 10 8 12 11 13 16 16 19 19 19 18 18 21 25 32
19 15 13 11 10 8 11 12 8 10 15 12 11 19 23 25 29 33 40 44 46 46 47 34 29 10 5 3 6 4 2 6 7 7 6 8 11 14 15 16 17 19 19
17 14 12 11 11 10 10 9 11 11 3 4 11 17 18 21 25 35 36 43 44 33 43 41 42 37 29 22 12 5 2 3 4 5 3 5 4 3 10 12 13 17 20
13 8 8 14 16 10 10 11 15 3 9 13 13 12 13 16 21 28 37 38 43 36 22 34 40 40 39 40 39 34 28 21 16 12 6 3 5 7 10 13 13 12 11
16 9 7 15 20 15 14 11 10 10 9 9 8 8 10 15 18 20 25 31 35 32 32 38 27 33 40 39 41 40 37 35 35 33 31 31 30 29 27 24 17 10 10
18 16 23 19 21 16 20 20 19 15 6 6 5 6 13 17 18 17 14 24 24 28 30 35 40 38 28 31 32 34 34 35 35 32 31 28 28 29 28 27 25 26 26
6 13 13 15 16 16 9 12 9 8 4 6 4 6 12 18 21 21 13 14 18 19 26 29 29 31 32 30 29 31 27 27 26 25 24 22 26 26 24 24 22 20 21
15 14 12 19 19 16 17 13 7 10 6 6 1 5 10 13 18 24 19 12 15 20 25 26 24 24 24 26 25 25 25 23 22 23 24 24 24 16 17 16 15 16 18
13 13 13 13 12 13 8 10 13 9 6 8 1 6 7 8 15 22 24 24 22 18 20 22 22 21 19 22 26 25 24 23 22 23 23 22 21 21 20 20 19 16 15
12 15 13 11 12 7 6 6 6 5 6 10 4 6 7 8 9 13 16 19 18 19 15 18 21 23 22 14 15 13 15 14 15 18 21 22 23 19 20 18 16 15 17
23 17 15 9 2 6 10 6 8 17 9 3 6 11 8 8 7 11 12 14 16 16 17 18 16 15 18 18 17 14 13 13 14 10 11 15 19 17 16 14 14 17 15
13 8 7 16 16 7 2 10 11 8 9 5 2 8 9 7 6 9 10 11 12 13 13 13 14 16 14 14 17 18 18 17 16 16 13 10 14 13 12 13 15 15 14
9 13 20 16 9 5 7 5 8 2 6 7 4 4 5 6 7 7 8 8 10 11 12 11 12 10 11 15 18 19 19 19 19 17 16 13 9 12 13 13 12 12 10
10 10 12 10 6 3 8 11 11 4 4 4 3 4 4 5 7 8 6 8 9 9 10 10 12 14 16 17 18 21 20 19 18 16 15 13 11 12 11 10 11 12 12
4 8 6 9 15 11 7 5 6 6 5 4 4 4 4 5 5 5 8 8 9 8 9 10 11 17 20 17 18 19 18 18 18 17 15 13 13 12 12 12 13 14 14
15 12 13 12 10 9 8 6 5 3 4 4 5 4 3 5 4 6 6 7 7 8 8 9 10 9 11 19 21 20 19 18 17 16 15 13 11 12 17 16 15 13 11
Wind_Direction
216 218 225 249 276 298 311 315 313 314 312 307 312 317 314 306 304 304 305 307 306 302 296 294 294 294 287 284 279 275 265 259 258 262 257 270 266 266 283 235 238 239 247
205 221 234 256 280 301 310 314 314 314 312 317 321 311 306 309 309 310 312 312 312 308 301 295 298 297 287 279 276 270 266 259 251 256 258 259 262 262 262 264 260 239 232
222 231 242 264 292 305 314 318 317 322 326 319 311 309 310 311 308 308 318 309 306 300 297 292 290 288 289 281 270 264 260 260 251 250 250 255 257 253 245 260 273 267 282
232 238 248 274 291 309 315 316 321 322 314 311 305 308 311 315 317 318 306 307 306 308 301 292 290 288 284 273 268 263 260 256 251 248 248 249 257 262 260 257 260 249 261
231 238 252 269 293 307 308 313 312 307 306 309 317 319 326 322 323 312 314 316 316 312 310 299 292 289 285 273 263 265 261 256 251 248 245 241 247 252 256 263 253 244 262
231 237 244 265 290 302 309 313 316 316 314 321 328 331 328 328 319 324 324 321 322 314 310 305 294 289 287 276 263 260 254 249 244 244 243 235 240 249 256 247 249 240 239
229 223 240 269 294 303 311 327 314 311 320 334 338 343 331 327 331 333 336 333 332 318 307 302 295 290 288 278 270 265 252 240 238 243 243 237 238 240 247 236 234 240 251
226 224 242 274 285 291 304 300 305 310 326 337 345 331 323 335 339 342 341 345 339 331 311 305 299 295 286 278 273 262 253 242 234 235 235 236 234 234 223 228 239 252 258
221 227 239 258 264 268 275 297 323 331 329 331 331 328 332 345 340 348 350 352 346 346 329 317 317 301 280 288 274 263 253 241 238 234 231 232 232 235 240 246 252 260 267
217 227 243 254 256 248 268 306 334 336 337 330 337 334 335 338 344 351 354 356 1 1 339 320 333 329 285 278 279 264 251 240 231 224 226 235 245 253 252 250 252 259 258
220 225 241 253 251 255 296 307 331 329 328 333 333 350 337 338 356 358 2 2 1 7 10 22 344 331 314 269 257 271 236 222 204 208 207 218 229 242 250 253 253 255 253
222 233 237 245 251 241 257 282 324 314 314 327 333 329 339 352 2 359 7 7 4 15 23 36 49 24 13 300 238 264 252 196 184 180 204 233 242 252 258 255 257 259 263
223 230 237 246 253 255 255 282 300 307 329 332 334 334 342 0 11 0 4 10 5 18 28 33 45 61 70 65 60 48 326 269 286 268 268 262 243 199 245 246 258 268 266
214 218 287 290 278 262 252 277 286 174 289 318 326 341 350 357 5 5 6 2 3 9 20 31 42 46 56 64 65 65 67 69 78 86 81 2 302 284 285 291 288 276 274
193 163 264 259 265 276 265 254 264 262 283 311 332 354 11 11 11 4 359 360 358 10 33 45 39 43 54 57 57 59 64 70 72 72 77 78 78 75 71 67 65 66 61
247 310 281 248 253 258 242 247 233 249 277 321 327 11 19 13 4 359 354 356 354 6 26 39 42 44 47 51 53 58 58 57 58 59 62 65 62 63 65 65 60 54 57
229 241 213 257 255 253 243 204 227 225 237 315 293 359 15 14 7 6 7 359 348 2 25 30 37 46 47 48 50 52 52 50 53 48 44 43 43 54 57 55 51 42 49
250 237 224 234 230 253 253 211 240 258 261 199 160 345 11 20 12 4 17 21 26 25 24 23 30 38 48 50 53 55 51 46 48 55 61 61 60 54 49 46 39 38 38
255 241 235 253 266 268 242 236 207 193 329 194 269 351 349 5 27 8 12 28 35 43 41 23 21 24 42 52 47 41 41 43 44 44 43 46 51 54 56 49 44 39 30
262 247 239 263 264 237 244 333 170 51 154 158 142 48 14 42 18 17 17 26 34 33 43 40 32 27 24 36 55 66 61 51 52 58 44 30 27 26 31 33 32 37 46
300 257 227 253 76 203 224 230 301 190 178 164 60 37 67 50 26 19 21 25 25 35 31 37 23 38 29 10 20 23 24 27 30 40 55 51 30 14 30 24 21 20 18
237 214 226 231 225 263 204 113 79 155 142 116 69 58 53 33 30 34 26 26 28 26 28 21 26 31 16 2 6 12 15 18 20 22 20 41 36 11 22 25 14 10 2
175 173 177 189 206 156 133 114 149 149 81 104 83 33 28 37 31 47 26 24 29 19 30 13 22 17 349 352 4 5 13 15 16 13 11 15 33 8 20 7 3 348 351
181 175 175 180 182 182 153 126 130 145 107 76 69 48 32 43 34 36 29 35 35 27 27 5 11 353 354 356 1 1 3 4 5 5 3 5 17 10 3 350 333 326 344
181 201 186 154 129 121 131 132 133 84 103 89 70 73 61 54 43 36 19 41 33 28 33 13 23 353 347 356 360 357 355 355 353 356 2 4 17 354 345 327 342 345 342
113 124 115 106 97 100 102 101 107 111 88 91 81 76 80 68 42 49 32 32 38 27 25 8 17 22 331 337 348 350 350 352 351 349 347 350 349 347 319 325 323 329 325